Charlevoix, MI

2:10 AM EST on January 21, 2017 (GMT -0500)
Charlevoix

Weather History for KCVX - June, 2012

Change the Weather History Date:

Sunday, June 24, 2012

  Actual Average Record
Temperature  
Mean Temperature 63 °F -  
Max Temperature 68 °F 74 °F 91 °F (2005)
Min Temperature 58 °F 60 °F 50 °F (2004)
Degree Days  
Heating Degree Days 2    
Growing Degree Days 13 (Base 50)    
Moisture  
Dew Point 57 °F    
Average Humidity 76    
Maximum Humidity 92    
Minimum Humidity 57    
Precipitation  
Precipitation 0.00 in - - ()
Sea Level Pressure  
Sea Level Pressure 30.00 in    
Wind  
Wind Speed 6 mph (WNW)    
Max Wind Speed 14 mph    
Max Gust Speed 22 mph    
Visibility 10 miles    
Events Rain    
Averages and records for this station are not official NWS values.
T = Trace of Precipitation, MM = Missing Value Source: NWS Daily Summary

Daily Weather History Graph

Daily Weather History Graph

Search for Another Location

Airport or City:

Trip Planner

Search our weather history database for the weather conditions in past years. The results will help you decide how hot, cold, wet, or windy it might be!

Date:

Astronomy

Jun. 24, 2012 Rise Set
Actual Time 5:54 AM EDT 9:33 PM EDT
Civil Twilight 5:16 AM EDT 10:10 PM EDT
Nautical Twilight 4:25 AM EDT 11:01 PM EDT
Astronomical Twilight 3:18 AM EDT 12:08 AM EDT
Moon 11:13 AM EDT (6/24) No Moon Set
Length of Visible Light 16h 54m
Length of Day
15h 39m
Waxing Crescent, 24% of the Moon is Illuminated
Jun 24
Waxing Crescent
Jun 26
First Quarter
Jul 3
Full
Jul 10
Last Quarter
Jul 19
New

Hourly Weather History & Observations

Time (EDT) Temp. Dew Point Humidity Pressure Visibility Wind Dir Wind Speed Gust Speed Precip Events Conditions
12:14 AM 65.3 °F 54.1 °F 67% 30.04 in 10.0 mi SSW 5.8 mph - N/A   Overcast
12:34 AM 65.3 °F 54.5 °F 68% 30.04 in 10.0 mi South 4.6 mph - N/A Rain Light Rain
12:54 AM 64.6 °F 55.8 °F 73% 30.02 in 10.0 mi SSE 6.9 mph - N/A Rain Light Rain
1:15 AM 64.4 °F 56.1 °F 74% 30.02 in 10.0 mi Calm Calm - N/A Rain Light Rain
1:34 AM 63.7 °F 57.4 °F 80% 30.02 in 10.0 mi SSE 3.5 mph - N/A   Scattered Clouds
1:54 AM 63.1 °F 57.4 °F 81% 30.02 in 10.0 mi SE 3.5 mph - N/A   Clear
2:15 AM 63.5 °F 57.6 °F 81% 30.01 in 10.0 mi SE 3.5 mph - N/A   Scattered Clouds
2:34 AM 62.6 °F 57.9 °F 85% 30.00 in 10.0 mi SE 4.6 mph - N/A   Mostly Cloudy
2:54 AM 62.6 °F 57.6 °F 84% 29.99 in 10.0 mi SSE 5.8 mph - N/A   Overcast
3:15 AM 62.6 °F 57.2 °F 82% 29.99 in 10.0 mi SSE 4.6 mph - N/A   Overcast
3:34 AM 62.6 °F 56.8 °F 81% 29.99 in 10.0 mi SE 3.5 mph - N/A   Mostly Cloudy
4:14 AM 62.8 °F 56.3 °F 79% 29.98 in 10.0 mi SE 3.5 mph - N/A   Mostly Cloudy
4:34 AM 63.7 °F 55.8 °F 75% 29.97 in 10.0 mi SE 5.8 mph - N/A   Mostly Cloudy
4:55 AM 63.9 °F 55.4 °F 74% 29.97 in 10.0 mi SSE 4.6 mph - N/A   Mostly Cloudy
5:14 AM 65.5 °F 53.1 °F 64% 29.97 in 10.0 mi South 6.9 mph - N/A   Mostly Cloudy
5:34 AM 65.8 °F 53.6 °F 65% 29.97 in 10.0 mi SSW 6.9 mph - N/A   Overcast
5:54 AM 66.0 °F 54.1 °F 65% 29.97 in 10.0 mi SSW 6.9 mph - N/A Rain Light Rain
6:14 AM 65.3 °F 55.2 °F 70% 29.97 in 10.0 mi South 3.5 mph - N/A Rain Light Rain
6:35 AM 64.8 °F 55.4 °F 72% 29.97 in 10.0 mi South 4.6 mph - N/A   Overcast
6:54 AM 64.8 °F 56.1 °F 74% 29.97 in 10.0 mi Calm Calm - N/A Rain Light Rain
7:14 AM 64.2 °F 57.4 °F 78% 29.99 in 10.0 mi Calm Calm - N/A Rain Light Rain
7:34 AM 63.1 °F 57.9 °F 83% 30.00 in 10.0 mi NW 5.8 mph - N/A Rain Light Rain
7:54 AM 62.6 °F 57.7 °F 84% 29.99 in 10.0 mi NNW 4.6 mph - N/A Rain Light Rain
8:15 AM 63.0 °F 58.1 °F 84% 30.00 in 10.0 mi Calm Calm - N/A Rain Light Rain
8:34 AM 62.1 °F 57.9 °F 86% 29.99 in 5.0 mi WNW 3.5 mph - N/A Rain Light Rain
8:54 AM 62.1 °F 58.1 °F 87% 29.99 in 10.0 mi WSW 4.6 mph - N/A Rain Light Rain
9:15 AM 61.7 °F 58.3 °F 89% 29.98 in 10.0 mi SSW 4.6 mph - N/A Rain Light Rain
9:34 AM 61.9 °F 58.1 °F 87% 29.98 in 7.0 mi SW 8.1 mph - N/A Rain Rain
9:54 AM 61.9 °F 59.0 °F 90% 29.98 in 10.0 mi Calm Calm - N/A Rain Light Rain
10:14 AM 61.9 °F 59.4 °F 91% 29.98 in 10.0 mi Calm Calm - N/A Rain Rain
10:34 AM 62.6 °F 59.9 °F 91% 29.97 in 10.0 mi Calm Calm - N/A Rain Light Rain
10:55 AM 62.8 °F 60.3 °F 91% 29.97 in 10.0 mi SW 3.5 mph - N/A Rain Light Rain
11:14 AM 64.4 °F 62.1 °F 92% 29.97 in 10.0 mi WSW 5.8 mph - N/A   Overcast
11:34 AM 64.4 °F 61.5 °F 90% 29.97 in 10.0 mi WSW 10.4 mph - N/A   Overcast
11:55 AM 65.8 °F 62.1 °F 88% 29.97 in 10.0 mi WSW 10.4 mph - N/A   Overcast
12:14 PM 66.4 °F 61.2 °F 83% 29.98 in 10.0 mi West 11.5 mph - N/A   Overcast
12:34 PM 65.3 °F 60.3 °F 84% 29.98 in 10.0 mi West 10.4 mph - N/A   Overcast
12:54 PM 65.1 °F 60.8 °F 86% 29.99 in 10.0 mi West 11.5 mph - N/A   Overcast
1:14 PM 66.9 °F 61.3 °F 82% 29.99 in 10.0 mi West 12.7 mph - N/A   Overcast
1:35 PM 67.5 °F 62.1 °F 83% 29.99 in 10.0 mi West 11.5 mph - N/A   Overcast
1:54 PM 67.1 °F 62.1 °F 84% 29.99 in 10.0 mi West 8.1 mph - N/A   Overcast
2:14 PM 68.2 °F 62.4 °F 82% 29.99 in 10.0 mi WNW 9.2 mph - N/A   Overcast
2:35 PM 67.1 °F 62.4 °F 85% 29.99 in 10.0 mi WNW 8.1 mph - N/A   Overcast
2:54 PM 68.2 °F 63.0 °F 83% 29.99 in 10.0 mi WNW 10.4 mph - N/A   Overcast
3:14 PM 68.0 °F 62.4 °F 82% 30.00 in 10.0 mi NW 9.2 mph - N/A   Overcast
3:34 PM 68.7 °F 61.5 °F 78% 30.00 in 10.0 mi NNW 8.1 mph - N/A   Scattered Clouds
3:54 PM 68.0 °F 61.2 °F 79% 30.00 in 10.0 mi NNW 8.1 mph - N/A   Clear
4:14 PM 68.4 °F 61.0 °F 77% 30.00 in 10.0 mi NW 9.2 mph - N/A   Clear
4:34 PM 68.2 °F 59.7 °F 74% 30.01 in 10.0 mi WNW 9.2 mph - N/A   Scattered Clouds
4:54 PM 68.4 °F 59.2 °F 72% 30.01 in 10.0 mi NW 6.9 mph - N/A   Mostly Cloudy
5:14 PM 68.4 °F 57.9 °F 69% 30.00 in 10.0 mi NNW 8.1 mph - N/A   Scattered Clouds
5:34 PM 68.2 °F 58.5 °F 71% 30.00 in 10.0 mi NW 8.1 mph - N/A   Clear
5:54 PM 67.3 °F 58.5 °F 73% 30.01 in 10.0 mi NNW 5.8 mph - N/A   Clear
6:15 PM 67.1 °F 57.9 °F 72% 30.01 in 10.0 mi NNW 6.9 mph - N/A   Clear
6:34 PM 67.1 °F 57.7 °F 72% 30.01 in 10.0 mi NNW 5.8 mph - N/A   Clear
6:54 PM 66.4 °F 58.1 °F 75% 30.01 in 10.0 mi WNW 6.9 mph - N/A   Clear
7:15 PM 66.4 °F 56.5 °F 70% 30.02 in 10.0 mi NNW 9.2 mph - N/A   Clear
7:34 PM 65.8 °F 55.6 °F 69% 30.02 in 10.0 mi NNW 9.2 mph - N/A   Clear
7:54 PM 64.9 °F 53.4 °F 66% 30.02 in 10.0 mi NNW 11.5 mph - N/A   Clear
8:15 PM 64.0 °F 50.7 °F 62% 30.03 in 10.0 mi NNW 10.4 mph - N/A   Clear
8:34 PM 63.3 °F 50.0 °F 62% 30.03 in 10.0 mi North 9.2 mph 18.4 mph N/A   Clear
8:54 PM 62.4 °F 47.1 °F 57% 30.04 in 10.0 mi North 13.8 mph 18.4 mph N/A   Clear
9:14 PM 61.5 °F 46.6 °F 58% 30.05 in 10.0 mi NNW 11.5 mph - N/A   Clear
9:34 PM 60.8 °F 45.7 °F 57% 30.05 in 10.0 mi NNW 11.5 mph 17.3 mph N/A   Clear
9:54 PM 60.1 °F 45.0 °F 57% 30.05 in 10.0 mi NNW 12.7 mph 19.6 mph N/A   Clear
10:14 PM 59.7 °F 44.8 °F 58% 30.05 in 10.0 mi North 10.4 mph 21.9 mph N/A   Clear
10:34 PM 59.4 °F 46.8 °F 63% 30.05 in 10.0 mi NNW 10.4 mph 16.1 mph N/A   Clear
10:54 PM 58.8 °F 48.0 °F 67% 30.06 in 10.0 mi NNW 8.1 mph - N/A   Clear
11:14 PM 59.0 °F 48.6 °F 68% 30.06 in 10.0 mi NNW 11.5 mph - N/A   Clear
11:34 PM 58.8 °F 48.9 °F 70% 30.06 in 10.0 mi NNW 10.4 mph - N/A   Clear